This demonstration page uses our WeatherBlox Daily Observations layout. Learn more.

Left ArrowRight Arrow

Hourly Observations for September 15, 2021

Temp ( °F °C ) Dew Point ( °F °C ) Humidity (%) Winds ( mph kmh ) Pressure ( in mb ) Visibility ( mi km ) Precip ( " mm )
12:15 am 00:15 Clear 59 14.9 56 13.6 92 92 ESE 5 7 30.01 1016 10 16 N/A
12:35 am 00:35 Clear 59 15 56 13.5 91 91 SE 6 9 30.01 1016 10 16 N/A
12:55 am 00:55 Clear 57 14.1 55 13 93 93 SE 3 6 30.02 1016 10 16 N/A
1:15 am 01:15 Clear 56 13.5 55 12.5 94 94 SE 5 7 30.02 1017 10 16 N/A
1:35 am 01:35 Clear 57 13.9 55 12.9 94 94 SE 7 11 30.01 1016 10 16 N/A
1:55 am 01:55 Clear 58 14.3 56 13.5 95 95 SE 5 7 30.01 1016 10 16 N/A
2:15 am 02:15 Clear 58 14.5 56 13.5 94 94 ESE 6 9 30.00 1016 10 16 N/A
2:35 am 02:35 Clear 57 14 55 13 94 94 ESE 6 9 30.01 1016 10 16 N/A
2:55 am 02:55 Clear 57 14.1 56 13.1 94 94 ESE 7 11 30.00 1016 10 16 N/A
3:15 am 03:15 Clear 56 13.6 55 12.7 94 94 ESE 6 9 30.00 1016 10 16 N/A
3:35 am 03:35 Clear 56 13.5 55 12.6 94 94 SE 5 7 30.00 1016 10 16 N/A
3:55 am 03:55 Clear 56 13.5 55 12.7 95 95 SSE 5 7 29.99 1016 10 16 N/A
4:15 am 04:15 Clear 56 13.5 55 12.9 96 96 SSE 3 6 29.99 1016 10 16 N/A
4:35 am 04:35 Clear 57 14 56 13.4 96 96 SSE 6 9 29.99 1015 10 16 N/A
4:55 am 04:55 Clear 57 14 56 13.4 96 96 SSE 6 9 30.00 1016 10 16 N/A
5:15 am 05:15 Clear 58 14.3 56 13.5 95 95 SSE 6 9 29.99 1015 10 16 N/A
5:35 am 05:35 Clear 58 14.2 56 13.1 93 93 SSE 3 6 29.99 1015 10 16 N/A
5:55 am 05:55 Clear 57 14.1 56 13.1 94 94 SSE 5 7 29.99 1015 10 16 N/A
6:15 am 06:15 Clear 57 13.9 55 13 94 94 SSE 5 7 29.99 1016 10 16 N/A
6:35 am 06:35 Partly Cloudy 56 13.6 55 13 96 96 SSE 3 6 29.99 1016 10 16 N/A
6:55 am 06:55 Cloudy with Mist and Fog 58 14.7 57 14.1 96 96 S 6 9 30.00 1016 3 4 N/A
7:15 am 07:15 Cloudy with Fog 58 14.7 58 14.2 97 97 S 6 9 30.00 1016 1 1 N/A
7:35 am 07:35 Cloudy with Fog 59 15.1 58 14.6 97 97 S 6 9 30.01 1016 1 1 N/A
7:55 am 07:55 Cloudy with Fog 60 15.6 59 15.2 97 97 SSE 9 15 29.99 1016 0 0 N/A
8:15 am 08:15 Cloudy with Fog 61 16 60 15.6 97 97 SSE 7 11 29.99 1016 N/A N/A
8:35 am 08:35 Cloudy with Mist and Fog 61 16.3 61 16 98 98 S 8 13 29.99 1016 2 2 N/A
8:55 am 08:55 Cloudy with Mist and Fog 62 16.6 61 16.1 97 97 S 9 15 29.99 1015 5 8 N/A
9:15 am 09:15 Cloudy 62 16.9 62 16.5 98 98 S 10 17 29.98 1015 10 16 N/A
9:35 am 09:35 Cloudy 63 17.4 61 16.3 93 93 S 12 19 29.98 1015 10 16 N/A
9:55 am 09:55 Cloudy 64 17.6 61 16.2 92 92 S 10 17 29.98 1015 10 16 N/A
10:15 am 10:15 Cloudy 65 18.2 62 16.6 90 90 S 12 19 29.96 1015 10 16 N/A
10:35 am 10:35 Cloudy 66 18.9 62 16.7 87 87 S 12 19 29.97 1015 10 16 N/A
10:55 am 10:55 Cloudy 67 19.3 63 17 87 87 S 13 20 29.95 1014 10 16 N/A
11:15 am 11:15 Cloudy 68 20.1 63 17.2 83 83 S 12 19 29.94 1014 10 16 N/A
11:35 am 11:35 Cloudy 69 20.7 63 17.1 80 80 S 13 20 29.93 1014 10 16 N/A
11:55 am 11:55 Cloudy 71 21.6 64 17.5 78 78 S 12 19 29.91 1013 10 16 N/A
12:15 pm 12:15 Cloudy 73 22.9 64 17.5 72 72 S 15 24 29.90 1013 10 16 N/A
12:35 pm 12:35 Cloudy 73 23 63 17.4 71 71 S 13 20 29.89 1012 10 16 N/A
12:55 pm 12:55 Cloudy 74 23.4 63 17 67 67 S 14 22 29.88 1012 10 16 N/A
1:15 pm 13:15 Mostly Cloudy 76 24.2 63 17.1 65 65 S 17 28 29.86 1011 10 16 N/A
1:35 pm 13:35 Mostly Cloudy 76 24.5 63 17.1 63 63 SSW 16 26 29.86 1011 10 16 N/A
1:55 pm 13:55 Cloudy 76 24.2 62 16.9 64 64 S 16 26 29.85 1011 10 16 N/A
2:15 pm 14:15 Mostly Cloudy 76 24.6 63 17.1 63 63 SSW 15 24 29.84 1010 10 16 N/A
2:35 pm 14:35 Mostly Cloudy 78 25.3 63 17 60 60 S 14 22 29.81 1010 7 11 N/A
2:55 pm 14:55 Partly Cloudy 79 25.9 62 16.9 58 58 S 15 24 29.80 1009 10 16 N/A
3:15 pm 15:15 Partly Cloudy 80 26.7 63 17.1 56 56 S 14 22 29.78 1009 10 16 N/A
3:35 pm 15:35 Partly Cloudy 81 27.2 63 17 54 54 S 14 22 29.77 1008 10 16 N/A
3:55 pm 15:55 Sunny 81 27.3 62 16.4 51 51 S 14 22 29.76 1008 10 16 N/A
4:15 pm 16:15 Sunny 82 27.9 62 16.5 50 50 S 14 22 29.74 1007 10 16 N/A
4:35 pm 16:35 Sunny 83 28.4 62 16.4 48 48 SSE 15 24 29.73 1007 10 16 N/A
4:55 pm 16:55 Sunny 84 28.7 60 15.4 44 44 S 18 30 29.72 1006 10 16 N/A
5:15 pm 17:15 Sunny 84 29 59 14.8 42 42 SSE 14 22 29.72 1006 10 16 N/A
5:35 pm 17:35 Sunny 84 28.7 59 14.8 43 43 SSE 13 20 29.71 1006 10 16 N/A
5:55 pm 17:55 Sunny 84 28.7 58 14.7 42 42 SSE 14 22 29.71 1006 10 16 N/A
6:15 pm 18:15 Sunny 84 28.7 59 14.8 43 43 SSE 12 19 29.70 1006 10 16 N/A
6:35 pm 18:35 Sunny 83 28.1 59 14.9 45 45 SSE 13 20 29.70 1006 10 16 N/A
6:55 pm 18:55 Sunny 81 27.2 59 15.2 48 48 SSE 12 19 29.71 1006 10 16 N/A
7:15 pm 19:15 Sunny 80 26.5 60 15.6 51 51 SSE 12 19 29.72 1006 10 16 N/A
7:35 pm 19:35 Sunny 78 25.4 61 16 56 56 SSE 10 17 29.72 1007 10 16 N/A
7:55 pm 19:55 Clear 76 24.4 61 16.1 60 60 SSE 8 13 29.74 1007 10 16 N/A
8:15 pm 20:15 Clear 75 23.8 61 16.2 63 63 SSE 8 13 29.75 1007 10 16 N/A
8:35 pm 20:35 Clear 74 23.2 61 16.3 65 65 SSE 12 19 29.76 1008 10 16 N/A
8:55 pm 20:55 Clear 74 23.1 61 16 64 64 SSE 12 19 29.76 1008 10 16 N/A
9:15 pm 21:15 Clear 73 23 61 16 65 65 S 12 19 29.77 1008 10 16 N/A
9:35 pm 21:35 Clear 73 22.9 61 16 65 65 S 10 17 29.78 1009 10 16 N/A
9:55 pm 21:55 Clear 73 22.7 61 16.1 66 66 S 12 19 29.79 1009 10 16 N/A
10:15 pm 22:15 Clear 73 22.5 61 16.2 68 68 S 13 20 29.80 1009 10 16 N/A
10:35 pm 22:35 Clear 72 22.3 61 16.1 68 68 S 12 19 29.80 1009 10 16 N/A
10:55 pm 22:55 Clear 72 22.2 61 16.1 68 68 S 12 19 29.80 1009 10 16 N/A
11:15 pm 23:15 Clear 71 21.9 61 16.2 70 70 S 12 19 29.80 1009 10 16 N/A
11:35 pm 23:35 Clear 71 21.5 61 16.2 72 72 S 10 17 29.81 1009 10 16 N/A
11:55 pm 23:55 Clear 70 21.3 61 16.2 73 73 S 10 17 29.80 1009 10 16 N/A

Powered by AerisWeather